Regional Weather Roundup
Issued by NWS

Home | Current Version | Previous Version | Graphics & Text | Print | Product List | Glossary On
Versions: 1 2 3 4 5 6 7 8 9 10 11 12 13 14 15 16 17 18 19 20 21 22 23 24 25 26 27 28 29 30 31 32 33 34 35 36 37 38 39 40 41 42 43 44 45 46 47 48 49 50
000
ASUS45 KBOU 212307
RWRCO

WEATHER ROUNDUP FOR COLORADO
NATIONAL WEATHER SERVICE DENVER/BOULDER CO
500 PM MDT MON JUL 21 2014

NOTE: "FAIR" INDICATES FEW OR NO CLOUDS BELOW 12000 FEET WITH NO
SIGNIFICANT WEATHER AND/OR OBSTRUCTIONS TO VISIBILITY.

COZ001>005-013-030-031-220000-
...NORTHWEST COLORADO...

CITY           SKY/WX    TMP DP  RH WIND       PRES   REMARKS
CRAIG          MOSUNNY   90  36  14 W6        30.19F
HAYDEN         MOSUNNY   90  30  12 SW18      30.22F
MEEKER         MOSUNNY   89  33  13 SW15      30.21F
MOUNT WERNER   NOT AVBL
STEAMBOAT SPGS MOSUNNY   83  37  19 CALM      30.25F
WALDEN         MOSUNNY   79  34  19 SW10G17   30.38S
$$

COZ006>008-011-220000-
...WEST CENTRAL VALLEYS...

CITY           SKY/WX    TMP DP  RH WIND       PRES   REMARKS
GRAND JUNCTION MOSUNNY   95  31  10 W5        30.08F
MONTROSE       PTSUNNY   91  36  14 W10       30.19S
EAGLE          MOSUNNY   88  37  16 SW20      30.26F
RIFLE          SUNNY     95  30  10 NW12      30.13F
DELTA          PTSUNNY  100  29   8 SW8G18    30.13F
NUCLA          PTSUNNY   93  27   9 SW12G22   30.25
$$

COZ017>023-064>068-220000-
...SOUTHWEST COLORADO...

CITY           SKY/WX    TMP DP  RH WIND       PRES   REMARKS
DURANGO        MOSUNNY   88  28  11 SW8G22    30.26F
CORTEZ         SUNNY     90  31  12 W14       30.23S
PAGOSA SPRINGS MOSUNNY   85  29  13 SW13      30.35F
TELLURIDE      PTSUNNY   79  28  15 W7        30.47S
WOLF CREEK PAS NOT AVBL
$$

COZ009-010-012-014-032>034-037-058>063-220000-
...CENTRAL COLORADO...

CITY           SKY/WX    TMP DP  RH WIND       PRES   REMARKS
ASPEN          PTSUNNY   82  30  15 VRB6      30.35S
BUENA VISTA    PTSUNNY   81  29  15 S8        30.35S
COPPER MTN     PTSUNNY   68  28  22 W15G24    30.74S
BERTHOUD PASS  FAIR      57  43  58 W20       30.78F
COTTONWOOD PAS PTSUNNY   77  21  12 NW3       30.53F
GUNNISON       PTSUNNY   81  36  19 N3        30.37S
KREMMLING      MOSUNNY   90  21   8 SW13G24   30.32S
LEADVILLE      PTSUNNY   72  29  20 NW17      30.53S
MONARCH PASS   CLOUDY    59  32  36 SW12G17   30.84R
SALIDA         PTSUNNY   82  33  17 SE9       30.39S
SUNLIGHT       MOSUNNY   73  37  27 CALM      30.64F
WILKERSON PASS PTSUNNY   73  27  17 SW3       30.68S
$$

COZ069>075-220000-
...SAN LUIS VALLEY/SANGRE DE CRISTO MOUNTAINS...

CITY           SKY/WX    TMP DP  RH WIND       PRES   REMARKS
ALAMOSA        PTSUNNY   81  35  19 CALM      30.33F
LA VETA PASS   PTSUNNY   64  43  45 E7        30.60S
SAGUACHE       PTSUNNY   77  41  27 CALM      30.39R
$$

COZ035-036-038>040-220000-
...NORTHERN COLORADO FRONT RANGE...

CITY           SKY/WX    TMP DP  RH WIND       PRES   REMARKS
DENVER INTL AP PTSUNNY   93  35  13 SE6       30.12S
DMNS CITY PARK   N/A     93  42  17 E6        30.11F
AURORA         PTSUNNY   91  42  18 E6        30.15F
FRONT RANGE AP NOT AVBL
ERIE MUNI ARPT MOSUNNY   96  35  11 SE10      30.08F
BOULDER MUN AP MOSUNNY   95  41  15 SE8       30.09S
CENTENNIAL     PTSUNNY   92  32  12 E6        30.16F
BROOMFIELD     NOT AVBL
FORT COLLINS   PTSUNNY   93  45  18 N17         N/A
LONGMONT       PTSUNNY   99  41  13 SE8       30.08S
$$

COZ041-046-047-076>085-087-088-220000-
...PIKES PEAK/PALMER DIVIDE AND SOUTHERN FOOTHILLS...

CITY           SKY/WX    TMP DP  RH WIND       PRES   REMARKS
COLO. SPRINGS  PTSUNNY   84  42  22 SW18G25   30.23S
A. F. ACADEMY  PTSUNNY   85  42  21 SE15      30.24S
ELLICOTT       PTSUNNY   87  38  17 SW12      30.22R
FALCON         PTSUNNY   83  41  22 S7        30.30S
FORT CARSON    PTSUNNY   84  45  24 S16       30.20S
LIMON          MOSUNNY   90  37  15 SE6       30.13F
MONUMENT HILL  MOSUNNY   84  36  17 SE10      30.29S
TRINIDAD       CLOUDY    78  54  43 W10       30.23F
$$

COZ042>045-048>051-090-091-220000-
...NORTHEAST COLORADO...

CITY           SKY/WX    TMP DP  RH WIND       PRES   REMARKS
GREELEY ARPT   MOSUNNY   97  43  15 E5        30.06F
AKRON          PTSUNNY   97  37  12 VRB3      30.06F
BURLINGTON     PTSUNNY   93  54  26 SE9       30.03F
WRAY             N/A    103  42  12 E6        29.98S
STERLING       PTSUNNY   97  55  24 S7        29.99F
HOLYOKE        MOSUNNY   99  55  23 S7        29.98F
FORT MORGAN    PTSUNNY   97  40  14 SE8       30.06S
$$

COZ086-089-092>099-220000-
...SOUTHEAST COLORADO...

CITY           SKY/WX    TMP DP  RH WIND       PRES   REMARKS
PUEBLO         CLOUDY    93  44  18 SW16      30.09R
LA JUNTA       PTSUNNY   94  56  27 W10       30.04S
LAMAR          MOSUNNY  100  47  16 SW7       29.96S
SPRINGFIELD      N/A     83  56  39 W12       30.07R
$$



USA.gov is the U.S. government's official web portal to all federal, state and local government web resources and services.